User: anonymous   Login
Location: Unspecified
(40.7945°N, 111.1337°W)
Time: 20:22:25
(UTC-06:00)
Language:

Transit 2A - Orbit

View from above orbital plane
View from above orbital plane
View from above satellite
View from above satellite

Ground track
Ground track

The orbit data is extracted from the following two-line orbital elements,

1    45U 60007A   19174.68620387 -.00000054  00000-0  13729-4 0  9990
2    45  66.6942 248.9408 0260490 218.8086 139.4056 14.33641523 71135
Epoch (UTC): 23 June 2019 16:28:08
Eccentricity: 0.0260490
inclination: 66.6942°
perigee height: 593 km
apogee height: 966 km
right ascension of ascending node: 248.9408°
argument of perigee: 218.8086°
revolutions per day: 14.33641523
mean anomaly at epoch: 139.4056°
orbit number at epoch: 7113

The dashed part of the orbit path shows where the satellite is in the earth's shadow,  

DLR